Weather History for KLWM - June, 2014

Change the Weather History Date:

Sunday, June 15, 2014

  Actual Average Record
Temperature  
Mean Temperature 66 °F -  
Max Temperature 77 °F 78 °F 96 °F (1956)
Min Temperature 54 °F 56 °F 43 °F (1933)
Growing Degree Days 16 (Base 50)    
Moisture  
Dew Point 50 °F    
Average Humidity 56    
Maximum Humidity 83    
Minimum Humidity 38    
Precipitation  
Precipitation 0.00 in - - ()
Sea Level Pressure  
Sea Level Pressure 29.99 in    
Wind  
Wind Speed 7 mph (NW)    
Max Wind Speed 16 mph    
Max Gust Speed 24 mph    
Visibility 10 miles    
Events      
Averages and records for this station are not official NWS values.
T = Trace of Precipitation, MM = Missing Value Source: NWS Daily Summary

Daily Weather History Graph

Daily Weather History Graph

Search for Another Location

Airport or City:

Trip Planner

Search our weather history database for the weather conditions in past years. The results will help you decide how hot, cold, wet, or windy it might be!

Date:

Astronomy

Jun. 15, 2014 Rise Set
Actual Time 5:05 AM EDT 8:24 PM EDT
Civil Twilight 4:30 AM EDT 8:59 PM EDT
Nautical Twilight 3:45 AM EDT 9:44 PM EDT
Astronomical Twilight 2:49 AM EDT 10:40 PM EDT
Moon 10:28 PM EDT (6/15) 7:58 AM EDT (6/15)
Length of Visible Light 16h 28m
Length of Day
15h 18m
Waning Gibbous, 91% of the Moon is Illuminated
Jun 15
Waning Gibbous
Jun 19
Last Quarter
Jun 27
New
Jul 5
First Quarter
Jul 12
Full

Hourly Weather History & Observations

Time (EDT) Temp. Dew Point Humidity Pressure Visibility Wind Dir Wind Speed Gust Speed Precip Events Conditions
12:54 AM 60.1 °F 48.9 °F 67% 29.93 in 10.0 mi WNW 4.6 mph - N/A   Mostly Cloudy
1:54 AM 59.0 °F 48.0 °F 67% 29.93 in 10.0 mi WNW 5.8 mph - N/A   Partly Cloudy
2:54 AM 57.0 °F 48.0 °F 72% 29.92 in 10.0 mi West 5.8 mph - N/A   Clear
3:54 AM 55.9 °F 48.9 °F 77% 29.92 in 10.0 mi WSW 3.5 mph - N/A   Clear
4:54 AM 54.0 °F 48.9 °F 83% 29.94 in 10.0 mi WSW 3.5 mph - N/A   Clear
5:54 AM 57.0 °F 51.1 °F 81% 29.96 in 10.0 mi NNW 3.5 mph - N/A   Clear
6:54 AM 60.8 °F 51.8 °F 72% 29.98 in 10.0 mi Variable 5.8 mph - N/A   Clear
7:54 AM 64.0 °F 51.1 °F 63% 30.00 in 10.0 mi NW 8.1 mph - N/A   Clear
8:54 AM 66.9 °F 52.0 °F 59% 30.00 in 10.0 mi WNW 15.0 mph 20.7 mph N/A   Clear
9:54 AM 68.0 °F 51.1 °F 55% 30.01 in 10.0 mi WNW 10.4 mph 23.0 mph N/A   Clear
10:54 AM 70.0 °F 52.0 °F 53% 30.00 in 10.0 mi WNW 10.4 mph 17.3 mph N/A   Clear
11:54 AM 73.0 °F 52.0 °F 48% 29.99 in 10.0 mi NNW 9.2 mph - N/A   Clear
12:54 PM 73.9 °F 52.0 °F 46% 30.00 in 10.0 mi WNW 10.4 mph - N/A   Clear
1:54 PM 75.9 °F 52.0 °F 43% 29.98 in 10.0 mi NW 16.1 mph 21.9 mph N/A   Clear
2:54 PM 77.0 °F 52.0 °F 42% 29.99 in 10.0 mi NW 12.7 mph 21.9 mph N/A   Clear
3:54 PM 75.9 °F 52.0 °F 43% 29.99 in 10.0 mi NW 15.0 mph 24.2 mph N/A   Clear
4:54 PM 75.9 °F 48.9 °F 38% 29.99 in 10.0 mi NW 12.7 mph 20.7 mph N/A   Clear
5:54 PM 75.0 °F 48.0 °F 38% 29.99 in 10.0 mi NW 12.7 mph - N/A   Clear
6:54 PM 73.9 °F 46.9 °F 38% 30.01 in 10.0 mi NNW 10.4 mph - N/A   Clear
7:54 PM 71.1 °F 46.0 °F 41% 30.03 in 10.0 mi NNW 9.2 mph - N/A   Clear
8:54 PM 68.0 °F 46.0 °F 45% 30.04 in 10.0 mi North 5.8 mph - N/A   Clear
9:54 PM 66.0 °F 46.9 °F 50% 30.06 in 10.0 mi NNW 4.6 mph - N/A   Clear
10:54 PM 64.0 °F 48.0 °F 56% 30.07 in 10.0 mi Calm Calm - N/A   Clear
11:54 PM 62.1 °F 48.0 °F 60% 30.07 in 10.0 mi North 5.8 mph - N/A   Clear